Location: Dos Palmas
(32.4468°N, 116.8732°W)
Time: 02:00:54
(UTC+00:00)

Lacrosse 5 rocket - Pass Details

Date: 20 June 2021
Orbit: 459 x 634 km, 57.0° (Epoch: 27 July)

Event Time Altitude Azimuth Distance (km) Brightness Sun altitude
Rises 11:08:50 0° 340° (NNW) 2,501 5.0 -16.6°
Reaches altitude 10° 11:11:39 10° 4° (N) 1,642 4.4 -16.1°
Maximum altitude 11:13:54 15° 42° (NE) 1,363 4.5 -15.8°
Drops below altitude 10° 11:16:11 10° 79° (E) 1,682 4.7 -15.4°
Sets 11:19:08 0° 103° (ESE) 2,599 5.3 -15.0°
